This is the latest recevied weather packets stored in our database for station/object SQ9RHX-13. If no packets are shown the sender has not sent any weather packets the latest 10 day(s).
| Time | Temp. | Humidity | Pressure | Rain* | Wind** | Luminosity | Snow |
|---|---|---|---|---|---|---|---|
| 1777910704 | 26.67° C | 34% | 1015 hPa | 0 mm | - | 95 W/m² | - |
| 1777910407 | 27.22° C | 35% | 1015 hPa | 0 mm | - | 104 W/m² | - |
| 1777910103 | 27.78° C | 34% | 1015.1 hPa | 0 mm | - | 115 W/m² | - |
| 1777909803 | 27.78° C | 35% | 1015 hPa | 0 mm | - | 139 W/m² | - |
| 1777909502 | 27.22° C | 34% | 1015 hPa | 0 mm | - | 187 W/m² | - |
| 1777909203 | 26.67° C | 35% | 1015 hPa | 0 mm | - | 196 W/m² | - |
| 1777908903 | 26.67° C | 36% | 1015 hPa | 0 mm | - | 205 W/m² | - |
| 1777908604 | 26.67° C | 35% | 1015 hPa | 0 mm | - | 150 W/m² | - |
| 1777908302 | 26.67° C | 35% | 1015.1 hPa | 0 mm | - | 181 W/m² | - |
| 1777908005 | 26.11° C | 36% | 1014.9 hPa | 0 mm | - | 173 W/m² | - |
| 1777907705 | 26.11° C | 36% | 1015 hPa | 0 mm | - | 165 W/m² | - |
| 1777907404 | 26.11° C | 36% | 1014.9 hPa | 0 mm | - | 114 W/m² | - |
| 1777907103 | 26.67° C | 34% | 1014.9 hPa | 0 mm | - | 112 W/m² | - |
| 1777906802 | 27.22° C | 33% | 1015.1 hPa | 0 mm | - | 119 W/m² | - |
| 1777906504 | 27.78° C | 32% | 1015 hPa | 0 mm | - | 150 W/m² | - |
| 1777906205 | 28.33° C | 32% | 1015.1 hPa | 0 mm | - | 202 W/m² | - |
| 1777905902 | 27.22° C | 33% | 1015.1 hPa | 0 mm | - | 286 W/m² | - |
| 1777905604 | 27.22° C | 33% | 1015.2 hPa | 0 mm | - | 355 W/m² | - |
| 1777905304 | 27.22° C | 34% | 1015.2 hPa | 0 mm | - | 326 W/m² | - |
| 1777905003 | 27.78° C | 33% | 1015.4 hPa | 0 mm | - | 246 W/m² | - |
| 1777904703 | 26.67° C | 35% | 1015.5 hPa | 0 mm | - | 257 W/m² | - |
| 1777904402 | 26.67° C | 34% | 1015.5 hPa | 0 mm | - | 276 W/m² | - |
| 1777904103 | 27.22° C | 34% | 1015.5 hPa | 0 mm | - | 204 W/m² | - |
| 1777903802 | 27.78° C | 34% | 1015.4 hPa | 0 mm | - | 290 W/m² | - |
| 1777903504 | 27.78° C | 34% | 1015.5 hPa | 0 mm | - | 347 W/m² | - |
* Rain latest hour (hover to see other rain measurements)
** Current wind speed in m/s (hover to see current wind gust speed)